THOR ABLESTAR DEB, 150

Orbit data source: Space-Track

THOR ABLESTAR DEB, 150 is space debris in LEO originally from a launch on Thu, 29 Jun 1961 UTC launched from the Air Force Eastern Test Range (AFETR). Debris objects in space refer to the collection of defunct objects orbiting the Earth. Examples of debris include non-operational satellites, rocket bodies, and fragments generated from explosions, collisions, or faulty payload assembly.

Loading next visibility...
Identifier
150, 1961-015AL
Orbit
LEO
Country
Flag of USUS
Related business
Manufacturer
Unknown
Mission
Spacecraft
Bus & Motor
Unknown
Mass
Unknown
Launch date (UTC)
1961-06-29 (64 years ago)
Launch vehicle
Unknown
Launch site
Air Force Eastern Test Range (AFETR)
Object type
Payload
Rocket body
Debris
Shape & HBR
Unknown shape, 0.1 m
Radar Cross Section
Medium (>0.1 m² and <1 m²)

Expand to show TLE details & history
Last TLE update: 13 hours ago

TLE from 13 hours ago
0 THOR ABLESTAR DEB
1 00150U 61015AL  25348.76675766  .00000833  00000-0  81346-3 0  9990
2 00150  66.2484 358.0013 0059164 355.1193   4.9293 13.83687603 82989
Epoch: 2025-12-14T18:24Z
TLE epoch observation values (Epoch: 2025-12-14T18:24:07.861Z)
Latitude
-0.00004°
Longitude
-1.70643°
Altitude
909.66 km
Speed
7.419 km/s
True Right ascension
23h 52m 00s
True Declination
0° 00' 00"
Sunlit
Object was in daylight at epoch
Visualization orbit readout
Latitude
Unknown
Longitude
Unknown
Altitude
Unknown
Speed
Unknown
Apparent Right ascension
Unknown
Apparent Declination
Unknown
Sunlit
N/A
Visualization observer readout
Local Sidereal Time
05:39:19
Azimuth
Unknown
Elevation
Unknown
Doppler factor
Unknown
Orbital elements
Apogee altitude
992.651 km
Perigee altitude
905.947 km
Semi-major axis
7,327.436 km
Eccentricity
0.00592
Inclination
66.2484°
RAAN
358.0013°
Arg. of periapsis
355.1193°
True anomaly
4.98799°
Mean anomaly
4.9293°
Eccentric anomaly
4.9586°
Mean motion
3.46031 °/min
Orbital period
104.04 mins
BSTAR
0.00081346
Loading maneuver chart data...
Computing Atmospheric mass density...

Documentation

Showing up to 5 results
|